Location: Turrell
(35.3798°N, 90.2579°W)
Time: 07:39:26
(UTC+00:00)

ACS3 Solar Sail - Visible Passes

Search period start: 08 November 2024 00:00
Search period end: 18 November 2024 00:00
Orbit: 962 x 1019 km, 97.5° (Epoch: 08 November)

Date Brightness Start Highest point End Pass type
(mag) Time Alt. Az. Time Alt. Az. Time Alt. Az.
08 Nov 3.0 00:52:22 26° NNE 00:52:22 26° NNE 00:55:29 10° N visible
08 Nov 4.0 02:37:21 18° NW 02:37:21 18° NW 02:39:11 10° NNW visible
09 Nov 2.9 01:22:04 31° N 01:22:04 31° N 01:25:11 10° N visible
09 Nov 4.6 03:07:03 11° NW 03:07:03 11° NW 03:07:16 10° NW visible
10 Nov 3.5 00:06:41 14° NE 00:06:41 14° NE 00:08:29 10° NNE visible
10 Nov 3.3 01:51:39 28° NNW 01:51:39 28° NNW 01:54:25 10° NNW visible
11 Nov 3.1 00:36:11 21° NE 00:36:11 21° NE 00:38:54 10° NNE visible
11 Nov 3.8 02:21:08 21° NW 02:21:08 21° NW 02:23:12 10° NNW visible
12 Nov 3.0 01:05:35 27° NNE 01:05:35 27° NNE 01:08:30 10° N visible
12 Nov 4.4 02:50:31 13° NW 02:50:31 13° NW 02:51:23 10° NW visible
12 Nov 3.6 23:49:55 10° NE 23:49:55 10° NE 23:50:05 10° NE visible
13 Nov 3.1 01:34:51 28° N 01:34:51 28° N 01:37:36 10° N visible
14 Nov 3.3 00:19:06 17° NE 00:19:06 17° NE 00:21:17 10° NNE visible
14 Nov 3.6 02:04:03 23° NNW 02:04:03 23° NNW 02:06:17 10° NNW visible
15 Nov 3.1 00:48:11 23° NNE 00:48:11 23° NNE 00:50:52 10° N visible
15 Nov 4.1 02:33:07 16° NW 02:33:07 16° NW 02:34:28 10° NNW visible
16 Nov 3.1 01:17:09 27° N 01:17:09 27° N 01:19:51 10° N visible
17 Nov 3.5 00:01:07 13° NE 00:01:07 13° NE 00:02:29 10° NNE visible
17 Nov 3.4 01:46:02 25° NNW 01:46:02 25° NNW 01:48:25 10° NNW visible
